AD5L Weather Reports


Display with metric or nautical units.
time (UTC)temp
F
wind
direction
speed
MPH
gust
MPH
rain 1hr
in
rain 24hr
in
rain mn
in
humidity
%
barometer
mb
20260902043332 85 122 1.0 6.0 0.00 0.00 0.00 69 1015.4
20260902042341 85 99 1.0 3.0 0.00 0.00 0.00 70 1015.4
20260902041323 85 127 0.0 2.0 0.00 0.00 0.00 69 1015.2
20260902040340 85 127 0.0 1.0 0.00 0.00 0.00 68 1015.3
20260902035323 86 127 0.0 2.0 0.00 0.00 0.00 67 1015.3
20260902034344 86 127 0.0 1.0 0.00 0.00 0.00 66 1015.2
20260902033325 86 127 0.0 1.0 0.00 0.00 0.00 66 1015.1
20260902032336 87 138 0.0 1.0 0.00 0.00 0.00 65 1015.1
20260902031327 87 138 0.0 2.0 0.00 0.00 0.00 64 1015.0
20260902030338 87 127 0.0 2.0 0.00 0.00 0.00 64 1014.8
20260902025329 87 127 0.0 1.0 0.00 0.00 0.00 63 1014.6
20260902024341 88 127 0.0 1.0 0.00 0.00 0.00 62 1014.3
20260902023332 88 127 0.0 1.0 0.00 0.00 0.00 61 1014.0
20260902022337 89 127 0.0 2.0 0.00 0.00 0.00 60 1013.9
20260902021326 89 143 0.0 2.0 0.00 0.00 0.00 59 1013.9
20260902020337 90 88 0.0 5.0 0.00 0.00 0.00 58 1013.7
20260902015328 90 122 0.0 2.0 0.00 0.00 0.00 57 1013.5
20260902014339 91 105 0.0 2.0 0.00 0.00 0.00 56 1013.4
20260902013330 91 96 1.0 4.0 0.00 0.00 0.00 55 1013.4
20260902012341 92 101 3.0 6.0 0.00 0.00 0.00 54 1013.3
20260902011333 92 72 2.0 7.0 0.00 0.00 0.00 54 1013.2
20260902010340 93 68 1.0 9.0 0.00 0.00 0.00 53 1013.1
20260902005322 93 88 5.0 9.0 0.00 0.00 0.00 52 1013.3
20260902004341 94 75 4.0 8.0 0.00 0.00 0.00 51 1013.4
20260902003324 95 114 1.0 6.0 0.00 0.00 0.00 49 1013.4
20260902002335 95 89 4.0 9.0 0.00 0.00 0.00 48 1013.4
20260902001323 96 85 5.0 11.0 0.00 0.00 0.00 48 1013.5
20260902000333 96 79 2.0 8.0 0.00 0.00 0.00 48 1013.4
20260901235325 97 86 3.0 8.0 0.00 0.00 0.00 48 1013.4
20260901234337 96 90 5.0 14.0 0.00 0.00 0.00 48 1013.4
20260901233329 97 79 7.0 11.0 0.00 0.00 0.00 48 1013.4
20260901232340 97 65 6.0 12.0 0.00 0.00 0.00 48 1013.4
20260901231332 97 81 5.0 15.0 0.00 0.00 0.00 49 1013.4
20260901230322 98 47 8.0 18.0 0.00 0.00 0.00 47 1013.5
20260901225332 98 74 3.0 6.0 0.00 0.00 0.00 47 1013.4
20260901224321 97 72 4.0 10.0 0.00 0.00 0.00 48 1013.5
20260901223332 98 90 6.0 10.0 0.00 0.00 0.00 47 1013.5
20260901222323 99 89 3.0 8.0 0.00 0.00 0.00 46 1013.4
20260901221334 99 123 2.0 7.0 0.00 0.00 0.00 46 1013.5
20260901220346 98 82 4.0 9.0 0.00 0.00 0.00 48 1013.5
20260901215337 97 34 3.0 10.0 0.00 0.00 0.00 48 1013.5
20260901214347 99 82 6.0 10.0 0.00 0.00 0.00 47 1013.5
20260901213329 99 91 4.0 7.0 0.00 0.00 0.00 45 1013.7
20260901212348 99 117 4.0 8.0 0.00 0.00 0.00 47 1013.7
20260901211330 97 29 3.0 7.0 0.00 0.00 0.00 47 1013.8
20260901210321 99 57 6.0 11.0 0.00 0.00 0.00 46 1014.0
20260901205332 99 120 3.0 7.0 0.00 0.00 0.00 46 1014.2
20260901204323 98 160 3.0 7.0 0.00 0.00 0.00 48 1014.3
20260901203330 98 107 2.0 9.0 0.00 0.00 0.00 47 1014.4
20260901202321 99 110 7.0 12.0 0.00 0.00 0.00 48 1014.5
20260901201333 99 118 5.0 12.0 0.00 0.00 0.00 47 1014.7
20260901200322 99 81 6.0 16.0 0.00 0.00 0.00 48 1014.8
20260901195333 100 190 3.0 8.0 0.00 0.00 0.00 46 1015.0
20260901194324 98 133 4.0 10.0 0.00 0.00 0.00 49 1015.1
20260901193335 97 91 4.0 7.0 0.00 0.00 0.00 49 1015.2
20260901192326 97 72 5.0 10.0 0.00 0.00 0.00 50 1015.5
20260901191337 97 212 3.0 6.0 0.00 0.00 0.00 50 1015.4
20260901190349 97 44 2.0 8.0 0.00 0.00 0.00 50 1015.8
20260901185338 98 117 3.0 8.0 0.00 0.00 0.00 49 1015.9
20260901184348 98 124 2.0 7.0 0.00 0.00 0.00 51 1015.9
20260901183331 97 181 4.0 9.0 0.00 0.00 0.00 50 1016.2
20260901182322 97 129 1.0 9.0 0.00 0.00 0.00 51 1016.4
20260901181333 97 105 3.0 5.0 0.00 0.00 0.00 52 1016.5
20260901180322 95 147 4.0 10.0 0.00 0.00 0.00 54 1016.5
20260901175333 95 70 6.0 11.0 0.00 0.00 0.00 53 1016.8
20260901174322 95 129 1.0 9.0 0.00 0.00 0.00 55 1016.9
20260901173334 94 183 1.0 5.0 0.00 0.00 0.00 56 1017.0
20260901172321 93 36 2.0 7.0 0.00 0.00 0.00 58 1017.3
20260901171332 93 124 2.0 6.0 0.00 0.00 0.00 57 1017.3
20260901170323 93 129 2.0 8.0 0.00 0.00 0.00 58 1017.4
20260901165334 93 132 1.0 8.0 0.00 0.00 0.00 57 1017.4
20260901164325 93 150 2.0 6.0 0.00 0.00 0.00 58 1017.4
20260901163335 91 316 1.0 5.0 0.00 0.00 0.00 62 1017.5
20260901162326 92 103 1.0 6.0 0.00 0.00 0.00 61 1017.8
20260901161333 91 159 1.0 4.0 0.00 0.00 0.00 62 1017.8
20260901160344 91 193 2.0 6.0 0.00 0.00 0.00 63 1017.8
20260901155335 90 41 2.0 4.0 0.00 0.00 0.00 66 1017.8
20260901154345 90 319 2.0 5.0 0.00 0.00 0.00 65 1017.6
20260901153326 89 108 2.0 6.0 0.00 0.00 0.00 66 1017.6
20260901152346 89 273 0.0 6.0 0.00 0.00 0.00 68 1017.5
20260901151327 89 316 1.0 3.0 0.00 0.00 0.00 70 1017.7
20260901150338 89 215 0.0 4.0 0.00 0.00 0.00 70 1017.7
20260901145330 87 146 2.0 5.0 0.00 0.00 0.00 72 1017.7
20260901144341 87 230 3.0 5.0 0.00 0.00 0.00 73 1017.7
20260901143332 86 262 0.0 4.0 0.00 0.00 0.00 76 1017.7
20260901142341 85 252 1.0 3.0 0.00 0.00 0.00 78 1017.7
20260901141332 84 248 2.0 5.0 0.00 0.00 0.00 79 1017.8
20260901140322 85 135 0.0 1.0 0.00 0.00 0.00 79 1017.9
20260901135333 85 135 0.0 1.0 0.00 0.00 0.00 79 1018.0
20260901134324 84 135 0.0 1.0 0.00 0.00 0.00 80 1017.9
20260901133332 82 135 0.0 1.0 0.00 0.00 0.00 82 1018.0
20260901132322 82 184 0.0 1.0 0.00 0.00 0.00 84 1017.9
20260901131333 81 184 0.0 0.0 0.00 0.00 0.00 84 1017.7
20260901130345 79 184 0.0 0.0 0.00 0.00 0.00 88 1017.5
20260901125337 78 184 0.0 0.0 0.00 0.00 0.00 88 1017.3
20260901124348 77 184 0.0 0.0 0.00 0.00 0.00 90 1017.3
20260901123338 75 184 0.0 0.0 0.00 0.00 0.00 92 1017.1
20260901122349 75 184 0.0 0.0 0.00 0.00 0.00 93 1017.0
20260901121327 75 184 0.0 0.0 0.00 0.00 0.00 93 1017.0
20260901120332 75 184 0.0 0.0 0.00 0.00 0.00 92 1016.9
20260901115322 75 184 0.0 0.0 0.00 0.00 0.00 92 1016.9
20260901114332 76 184 0.0 0.0 0.00 0.00 0.00 91 1016.8
20260901113322 76 184 0.0 0.0 0.00 0.00 0.00 92 1016.8
20260901112332 76 184 0.0 0.0 0.00 0.00 0.00 90 1016.7
20260901111321 76 184 0.0 0.0 0.00 0.00 0.00 90 1016.7
20260901110332 77 184 0.0 0.0 0.00 0.00 0.00 89 1016.6
20260901105322 77 184 0.0 0.0 0.00 0.00 0.00 88 1016.5
20260901104333 77 184 0.0 0.0 0.00 0.00 0.00 89 1016.6
20260901103323 78 184 0.0 0.0 0.00 0.00 0.00 88 1016.6
20260901102334 78 217 0.0 2.0 0.00 0.00 0.00 87 1016.4
20260901101325 78 224 0.0 2.0 0.00 0.00 0.00 87 1016.4
20260901100335 78 210 0.0 3.0 0.00 0.00 0.00 87 1016.2
20260901095326 78 226 0.0 2.0 0.00 0.00 0.00 86 1016.4
20260901094337 78 226 0.0 1.0 0.00 0.00 0.00 86 1016.4
20260901093329 79 226 0.0 1.0 0.00 0.00 0.00 86 1016.5
20260901092336 79 226 0.0 1.0 0.00 0.00 0.00 85 1016.6
20260901091345 79 226 0.0 2.0 0.00 0.00 0.00 84 1016.6
20260901090335 79 150 0.0 1.0 0.00 0.00 0.00 83 1016.4
20260901085345 79 143 0.0 3.0 0.00 0.00 0.00 82 1016.5
20260901084328 80 157 0.0 3.0 0.00 0.00 0.00 82 1016.2
20260901083345 80 163 1.0 3.0 0.00 0.00 0.00 81 1016.2
20260901082327 80 200 0.0 3.0 0.00 0.00 0.00 81 1016.2
20260901081338 80 162 0.0 2.0 0.00 0.00 0.00 80 1016.2
20260901080329 80 160 0.0 2.0 0.00 0.00 0.00 80 1016.2
20260901075336 81 153 1.0 3.0 0.00 0.00 0.00 79 1016.4
20260901074326 81 146 0.0 3.0 0.00 0.00 0.00 79 1016.3
20260901073336 81 153 1.0 3.0 0.00 0.00 0.00 79 1016.4
20260901072340 81 127 0.0 2.0 0.00 0.00 0.00 79 1016.4
20260901071327 82 130 0.0 2.0 0.00 0.00 0.00 78 1016.5
20260901070338 82 142 0.0 4.0 0.00 0.00 0.00 78 1016.5
20260901065328 82 173 1.0 4.0 0.00 0.00 0.00 77 1016.7
20260901064340 83 160 1.0 5.0 0.00 0.00 0.00 76 1016.4
20260901063326 83 146 1.0 8.0 0.00 0.00 0.00 75 1016.3
20260901062337 83 155 2.0 7.0 0.00 0.00 0.00 75 1016.0
20260901061329 83 114 3.0 8.0 0.00 0.00 0.00 74 1016.1
20260901060340 84 155 3.0 7.0 0.00 0.00 0.00 73 1016.0
20260901055330 84 134 3.0 7.0 0.00 0.00 0.00 73 1016.0
20260901054340 84 160 3.0 7.0 0.00 0.00 0.00 72 1015.9
20260901053332 84 119 2.0 7.0 0.00 0.00 0.00 71 1015.8
20260901052342 84 159 2.0 6.0 0.00 0.00 0.00 71 1015.8
20260901051324 85 128 4.0 8.0 0.00 0.00 0.00 70 1015.6
20260901050343 85 145 4.0 7.0 0.00 0.00 0.00 70 1015.7
20260901045325 85 130 3.0 8.0 0.00 0.00 0.00 69 1015.6
20260901044336 86 141 3.0 9.0 0.00 0.00 0.00 68 1015.6